[[{"header":{"parameterUnit":"m.s-1","parameterCategory":1,"la1":30.2991,"la2":30.254,"lo1":-89.0895,"lo2":-89.0444,"dy":0.0017,"dx":0.0017,"nx":28,"ny":28,"refTime":"2025-12-25T09:00:00:Z","depth":0,"parameterNumber":2,"parameterNumberName":"U-component_of_WINDS"},"data":[0,0,0,0,0,0,0,0,0,0,0,0,0,0,0,0,0,0,0,0,0,0,0,0,0,0,0,0,0,0,0,0,0,0,0,0,0,0,0,0,0,0,0,0,0,0,0,0,0,0,0,0,0,0,0,0,0,0,0.5638,0.5639,0,0.5752,0.5754,0.5755,0.5802,0.5802,0.5802,0.5801,0.5922,0.5925,0.5929,0,0,0,0,0,0,0,0,0,0,0,0,0,0.5463,0.5466,0.5638,0.5639,0.564,0.5752,0.5754,0.5755,0.5802,0.5802,0.5801,0.5801,0.5921,0.5925,0.5929,0,0,0,0,0,0,0,0,0,0,0,0,0,0.5555,0.5467,0.5637,0.5677,0.5682,0.5752,0.5754,0.5756,0.5802,0.5802,0.5801,0.5801,0.592,0.5925,0.593,0.5969,0,0,0.5946,0.5948,0,0,0,0,0,0,0,0,0.5549,0.5561,0.567,0.5675,0.568,0.5762,0.5737,0.5827,0.5802,0.5757,0.5801,0.5801,0.5869,0.5879,0.5901,0.5975,0.598,0.5946,0.5949,0.5951,0.5953,0,0,0,0,0,0,0,0.5543,0.5556,0.5683,0.5671,0.5678,0.5691,0.5703,0.5754,0.5814,0.5761,0.5764,0.5777,0.5872,0.5896,0.5904,0.5982,0.5946,0.595,0.5954,0.5956,0.6096,0.6097,0,0,0,0,0,0,0.553,0.5551,0.5679,0.5687,0.5612,0.5694,0.5708,0.5736,0.5813,0.5825,0.5777,0.5779,0.5887,0.5898,0.5909,0.5961,0.5951,0.5956,0.5959,0.6095,0.6096,0.6097,0,0,0,0,0,0,0.5526,0.5541,0.5675,0.562,0.5638,0.5698,0.5729,0.5739,0.5763,0.5826,0.5837,0.579,0.5888,0.5902,0.5954,0.5966,0.5959,0.5963,0.6095,0.6096,0.6097,0.6066,0,0,0,0,0,0,0.552,0.5539,0.5554,0.562,0.564,0.5717,0.573,0.5741,0.5771,0.5774,0.5841,0.5852,0.5888,0.5946,0.5959,0.5973,0.5967,0.6094,0.6095,0.6096,0.6066,0.6065,0.6065,0,0,0,0,0,0.5514,0.5541,0.5554,0.5569,0.566,0.5717,0.5729,0.577,0.5772,0.5788,0.5829,0.585,0.5963,0.5951,0.5966,0.5982,0.6093,0.6095,0.6096,0.6066,0.6066,0.6065,0,0,0,0,0,0,0.5475,0.555,0.5566,0.5614,0.5659,0.5725,0.5746,0.5767,0.5813,0.5814,0.5864,0.5878,0.5927,0.596,0.5946,0.6025,0.603,0.6034,0.6002,0.6002,0.6001,0.5993,0.5972,0,0,0,0,0,0.5472,0.5511,0.5575,0.5612,0.5634,0.5686,0.5713,0.574,0.5788,0.5808,0.5853,0.59,0.5947,0.5976,0.6022,0.6071,0.6087,0.6089,0.6089,0.6088,0.6092,0.6121,0.6124,0.6101,0.6101,0.6101,0,0,0.5466,0.5512,0.5534,0.5605,0.5643,0.5684,0.5702,0.5744,0.5775,0.5815,0.5867,0.5901,0.5958,0.6009,0.6034,0.6038,0.6101,0.609,0.6089,0.6093,0.6123,0.6125,0.6127,0.6102,0.6102,0.6102,0,0,0.5477,0.5515,0.555,0.5588,0.5645,0.568,0.5688,0.5752,0.5776,0.5829,0.586,0.5898,0.5977,0.6016,0.6046,0.6073,0.6095,0.6087,0.6085,0.6113,0.6115,0.6117,0.6127,0.613,0.609,0.609,0.609,0,0.5463,0.5525,0.5566,0.5607,0.5638,0.5675,0.5712,0.5747,0.5816,0.5837,0.5841,0.5941,0.5981,0.6043,0.6049,0.6072,0.6085,0.6079,0.6111,0.6113,0.6116,0.6126,0.613,0.6089,0.6089,0.6089,0.6089,0,0.5505,0.5548,0.5569,0.5635,0.5668,0.5707,0.5756,0.5785,0.5809,0.5844,0.5899,0.5949,0.6006,0.6023,0.6048,0.6089,0.6089,0.6101,0.6107,0.6116,0.6126,0.6131,0.6087,0.6087,0.6088,0.6088,0,0,0.5494,0.5582,0.5589,0.562,0.5686,0.572,0.5761,0.5817,0.5841,0.5888,0.5925,0.5991,0.6003,0.6037,0.6067,0.6091,0.6111,0.6101,0.6103,0.6101,0.616,0.6151,0.6155,0.6125,0.6126,0.6127,0.6156,0,0.5513,0.5587,0.5626,0.5684,0.5725,0.5761,0.5797,0.5843,0.5877,0.5917,0.5956,0.6002,0.6013,0.6034,0.6061,0.6102,0.6123,0.6101,0.6161,0.6163,0.6146,0.616,0.6151,0.6175,0.616,0.6161,0.6161,0,0.5546,0.5592,0.5653,0.5716,0.5734,0.5766,0.582,0.5858,0.5911,0.5934,0.5973,0.6002,0.6049,0.6051,0.6116,0.61,0.6128,0.6152,0.6154,0.6162,0.6163,0.6169,0.6184,0.6187,0.6168,0.6168,0.6167,0,0.5532,0.561,0.5657,0.5682,0.5756,0.5777,0.5809,0.5861,0.5893,0.5941,0.5962,0.6015,0.6044,0.6085,0.6129,0.6126,0.6191,0.6196,0.6213,0.6211,0.6224,0.6223,0.6244,0.6241,0.6241,0.6241,0.6241,0,0.555,0.5587,0.5652,0.568,0.5723,0.5768,0.581,0.5845,0.5891,0.5929,0.5964,0.5999,0.6054,0.6097,0.6131,0.6181,0.6194,0.6215,0.6224,0.6212,0.6209,0.6231,0.623,0.6242,0.6242,0.6242,0.6241,0,0.5542,0.5586,0.564,0.5706,0.5724,0.5752,0.5809,0.5839,0.5876,0.5923,0.5937,0.5994,0.6046,0.6093,0.6162,0.6186,0.6236,0.6247,0.6218,0.6223,0.6237,0.6235,0.6273,0.628,0.6271,0.6271,0.6271,0,0.555,0.5579,0.5648,0.5675,0.5706,0.575,0.5782,0.5828,0.586,0.5923,0.5947,0.6001,0.6046,0.6127,0.6176,0.623,0.6243,0.6252,0.6251,0.6238,0.6244,0.6241,0.6245,0.6252,0.6251,0.6251,0.6251,0,0.5561,0.5582,0.5626,0.5678,0.5715,0.5759,0.5803,0.5824,0.5879,0.5914,0.5967,0.6002,0.6073,0.6126,0.6185,0.622,0.6246,0.6251,0.6258,0.6246,0.6228,0.6239,0.6217,0.625,0.625,0.625,0.625,0.625,0.5562,0.559,0.5643,0.5691,0.5729,0.5771,0.5803,0.5843,0.5887,0.5948,0.5973,0.6027,0.6081,0.6163,0.6197,0.6241,0.6246,0.6256,0.6259,0.626,0.6258,0.6221,0.6252,0.6252,0.6252,0.6252,0.6253,0,0.5575,0.5611,0.5655,0.5716,0.5755,0.5774,0.5825,0.5856,0.5903,0.5951,0.5995,0.6056,0.6109,0.6162,0.6218,0.6243,0.6256,0.6256,0.6255,0.6263,0.625,0.6239,0.6245,0.6245,0.6245,0.6245,0.6245,0.6245,0.5586,0.5635,0.5662,0.573,0.5767,0.5819,0.5847,0.5885,0.5924,0.599,0.6034,0.6068,0.6119,0.6179,0.6228,0.6243,0.6262,0.6259,0.6277,0.6264,0.6264,0.6264,0.6254,0.6263,0.6263,0.6286,0.6287,0.6287]},{"header":{"parameterUnit":"m.s-1","parameterCategory":1,"la1":30.2991,"la2":30.254,"lo1":-89.0895,"lo2":-89.0444,"dy":0.0017,"dx":0.0017,"nx":28,"ny":28,"refTime":"2025-12-25T09:00:00:Z","depth":0,"parameterNumber":3,"parameterNumberName":"V-component_of_WINDS"},"data":[0,0,0,0,0,0,0,0,0,0,0,0,0,0,0,0,0,0,0,0,0,0,0,0,0,0,0,0,0,0,0,0,0,0,0,0,0,0,0,0,0,0,0,0,0,0,0,0,0,0,0,0,0,0,0,0,0,0,1.8345,1.8345,0,1.8336,1.8336,1.8336,1.8315,1.8315,1.8315,1.8314,1.8304,1.8304,1.8304,0,0,0,0,0,0,0,0,0,0,0,0,0,1.8343,1.8344,1.8345,1.8345,1.8344,1.8336,1.8336,1.8336,1.8315,1.8315,1.8314,1.8314,1.8304,1.8304,1.8304,0,0,0,0,0,0,0,0,0,0,0,0,0,1.834,1.8344,1.8345,1.8333,1.8332,1.8336,1.8336,1.8336,1.8316,1.8315,1.8314,1.8314,1.8304,1.8304,1.8304,1.8317,0,0,1.8304,1.8304,0,0,0,0,0,0,0,0,1.834,1.834,1.8335,1.8334,1.8333,1.8326,1.8331,1.8329,1.8316,1.8322,1.8314,1.8313,1.8311,1.8311,1.8311,1.8317,1.8316,1.8304,1.8304,1.8304,1.8305,0,0,0,0,0,0,0,1.8341,1.834,1.8341,1.8335,1.8334,1.8329,1.8327,1.8331,1.832,1.8321,1.832,1.8319,1.8311,1.8311,1.831,1.8316,1.8304,1.8304,1.8305,1.8305,1.8334,1.8334,0,0,0,0,0,0,1.8343,1.8341,1.8341,1.8341,1.8335,1.8329,1.8328,1.8329,1.832,1.8318,1.832,1.8318,1.8311,1.831,1.831,1.8326,1.8304,1.8305,1.8305,1.8333,1.8334,1.8335,0,0,0,0,0,0,1.8343,1.8343,1.8342,1.834,1.834,1.833,1.8331,1.8329,1.8329,1.8319,1.8317,1.8321,1.831,1.831,1.8316,1.8325,1.8305,1.8305,1.8332,1.8333,1.8334,1.8357,0,0,0,0,0,0,1.8343,1.8343,1.8348,1.8341,1.834,1.8348,1.8332,1.8329,1.8329,1.8327,1.832,1.8318,1.831,1.8316,1.8316,1.8325,1.8305,1.8331,1.8333,1.8334,1.8355,1.8359,1.8362,0,0,0,0,0,1.8343,1.8354,1.8348,1.8349,1.8346,1.8349,1.8348,1.8339,1.833,1.8335,1.8329,1.8318,1.8324,1.8317,1.8317,1.8326,1.8331,1.8332,1.8334,1.8354,1.8358,1.8361,0,0,0,0,0,0,1.8362,1.8353,1.8346,1.8356,1.8354,1.8345,1.8351,1.8343,1.8342,1.834,1.8328,1.8326,1.8335,1.8331,1.8323,1.8339,1.8326,1.8327,1.8341,1.8345,1.8348,1.8349,1.8305,0,0,0,0,0,1.8368,1.8371,1.8363,1.8372,1.8371,1.8362,1.8362,1.8355,1.8352,1.835,1.8344,1.8341,1.8342,1.8343,1.8343,1.8355,1.8353,1.8361,1.8364,1.8367,1.8368,1.8375,1.8379,1.834,1.834,1.834,0,0,1.8379,1.8374,1.8377,1.8376,1.8373,1.8376,1.8361,1.8365,1.8367,1.8351,1.8357,1.8352,1.8348,1.8357,1.8361,1.8354,1.8379,1.8369,1.8371,1.8371,1.8377,1.8381,1.8384,1.8341,1.8341,1.834,0,0,1.8401,1.8398,1.8406,1.8404,1.84,1.8394,1.8396,1.8389,1.8386,1.8392,1.838,1.8382,1.8384,1.8382,1.8381,1.8404,1.8394,1.8404,1.842,1.8427,1.843,1.8433,1.8441,1.8445,1.8406,1.8406,1.8406,0,1.8416,1.8421,1.8411,1.8416,1.8416,1.8402,1.841,1.8408,1.8405,1.8405,1.8397,1.84,1.8396,1.8405,1.8411,1.841,1.8412,1.8405,1.843,1.8433,1.8435,1.8444,1.8447,1.8407,1.8407,1.8407,1.8407,0,1.8439,1.8443,1.845,1.8448,1.8448,1.8455,1.8446,1.8448,1.8441,1.8435,1.8442,1.8437,1.8436,1.8438,1.843,1.8446,1.8442,1.8433,1.8419,1.844,1.8448,1.8451,1.8409,1.8408,1.8408,1.8408,0,0,1.8473,1.8466,1.8469,1.8468,1.8464,1.8466,1.8472,1.8473,1.8475,1.8473,1.8478,1.848,1.8472,1.8471,1.8463,1.8469,1.8489,1.8459,1.8459,1.8466,1.8507,1.8514,1.8518,1.8482,1.8483,1.8483,1.8507,0,1.8495,1.8506,1.8497,1.851,1.8513,1.85,1.8506,1.8504,1.8499,1.8501,1.8496,1.8498,1.8486,1.8486,1.8491,1.8485,1.8497,1.8483,1.8487,1.8488,1.849,1.8522,1.853,1.8552,1.851,1.8511,1.8511,0,1.8522,1.8522,1.8535,1.8531,1.8532,1.8537,1.8537,1.854,1.8537,1.8533,1.8533,1.8524,1.8529,1.8516,1.8524,1.8516,1.8517,1.8514,1.8515,1.8515,1.8501,1.8524,1.8559,1.8563,1.8515,1.8515,1.8515,0,1.8547,1.855,1.8559,1.8558,1.8553,1.8557,1.8555,1.8552,1.8553,1.8553,1.8553,1.8554,1.8554,1.8554,1.8546,1.8537,1.8555,1.8541,1.8553,1.8553,1.8557,1.8557,1.8594,1.8557,1.8557,1.8557,1.8557,0,1.8572,1.8581,1.857,1.8575,1.8585,1.8575,1.8584,1.8581,1.8578,1.8582,1.8571,1.8575,1.8563,1.8566,1.856,1.8568,1.8568,1.8565,1.8563,1.8567,1.8567,1.8567,1.8566,1.8558,1.8558,1.8557,1.8557,0,1.8602,1.8595,1.8603,1.8598,1.8597,1.8604,1.8599,1.8604,1.8599,1.8604,1.8605,1.8597,1.86,1.8592,1.8593,1.8589,1.8601,1.8596,1.8602,1.8601,1.8613,1.8613,1.8652,1.8657,1.8616,1.8617,1.8617,0,1.8619,1.8625,1.8621,1.8623,1.8622,1.8626,1.8627,1.8618,1.862,1.8618,1.8623,1.8625,1.8627,1.8632,1.8626,1.8628,1.8623,1.8637,1.8623,1.8627,1.8625,1.8625,1.8626,1.864,1.8641,1.8641,1.8641,0,1.865,1.8647,1.8649,1.8651,1.8653,1.8654,1.8654,1.8657,1.8647,1.8649,1.8653,1.8654,1.8656,1.8659,1.8659,1.8657,1.8648,1.8646,1.8649,1.8652,1.8656,1.8655,1.8611,1.8645,1.8645,1.8644,1.8644,1.8644,1.8674,1.868,1.8678,1.8682,1.8681,1.8682,1.8686,1.8682,1.8685,1.8687,1.8681,1.8686,1.8683,1.8683,1.8681,1.8685,1.8679,1.8683,1.8684,1.8685,1.8688,1.8655,1.8685,1.8685,1.8685,1.8685,1.8685,0,1.8706,1.8705,1.8708,1.8709,1.8712,1.8704,1.8703,1.8706,1.8711,1.871,1.8712,1.8717,1.8719,1.8714,1.8716,1.872,1.8716,1.8721,1.8721,1.8721,1.8693,1.8691,1.8724,1.8724,1.8724,1.8724,1.8724,1.8724,1.8723,1.8733,1.8729,1.8738,1.8736,1.8742,1.8742,1.8743,1.8742,1.8748,1.8751,1.8747,1.8744,1.8746,1.8749,1.8747,1.8749,1.8755,1.8752,1.8726,1.8722,1.8719,1.8717,1.8755,1.8755,1.878,1.878,1.878]}]]